Weather History for Meacham, OR

Change the Weather History Date:

Saturday, September 8, 2012

  Actual Average Record
Temperature  
Mean Temperature 62 °F -  
Max Temperature 90 °F 70 °F 90 °F (2012)
Min Temperature 35 °F 34 °F 24 °F (2001)
Degree Days  
Heating Degree Days 4    
Growing Degree Days 12 (Base 50)    
Moisture  
Dew Point 33 °F    
Average Humidity 43    
Maximum Humidity 89    
Minimum Humidity 12    
Precipitation  
Precipitation 0.00 in - - ()
Sea Level Pressure  
Sea Level Pressure 30.07 in    
Wind  
Wind Speed 1 mph (North)    
Max Wind Speed 6 mph    
Max Gust Speed -    
Visibility 10 miles    
Events      
Averages and records for this station are not official NWS values.
T = Trace of Precipitation, MM = Missing Value Source: NWS Daily Summary

Daily Weather History Graph

Daily Weather History Graph

Search for Another Location

Airport:

Trip Planner

Search our weather history database for the weather conditions in past years. The results will help you decide how hot, cold, wet, or windy it might be!

Date:

Astronomy

Sep. 08, 2012 Rise Set
Actual Time 6:24 AM PDT 7:17 PM PDT
Civil Twilight 5:54 AM PDT 7:47 PM PDT
Nautical Twilight 5:18 AM PDT 8:22 PM PDT
Astronomical Twilight 4:40 AM PDT 9:00 PM PDT
Moon 11:45 PM PDT (9/8) 2:31 PM PDT (9/8)
Length of Visible Light 13h 52m
Length of Day
12h 52m
Waning Gibbous, 48% of the Moon is Illuminated
Sep 8
Waning Gibbous
Sep 15
New
Sep 22
First Quarter
Sep 29
Full
Oct 8
Last Quarter

Hourly Weather History & Observations

Time (PDT) Temp. Dew Point Humidity Pressure Visibility Wind Dir Wind Speed Gust Speed Precip Events Conditions
12:56 AM 41.0 °F 35.1 °F 79% 30.19 in 10.0 mi Calm Calm - N/A   Clear
1:56 AM 39.9 °F 35.1 °F 83% 30.19 in 10.0 mi Calm Calm - N/A   Clear
2:56 AM 37.9 °F 34.0 °F 86% 30.19 in 10.0 mi Calm Calm - N/A   Clear
3:56 AM 37.0 °F 33.1 °F 86% 30.19 in 10.0 mi Calm Calm - N/A   Clear
4:56 AM 36.0 °F 32.0 °F 86% 30.18 in 10.0 mi Calm Calm - N/A   Clear
5:56 AM 35.1 °F 32.0 °F 89% 30.19 in 10.0 mi Calm Calm - N/A   Clear
6:56 AM 35.1 °F 32.0 °F 89% 30.20 in 10.0 mi Calm Calm - N/A   Clear
7:56 AM 43.0 °F 35.1 °F 74% 30.20 in 10.0 mi Calm Calm - N/A   Clear
8:56 AM 68.0 °F 35.1 °F 30% 30.14 in 10.0 mi Calm Calm - N/A   Clear
9:56 AM 75.0 °F 33.1 °F 22% 30.13 in 10.0 mi Calm Calm - N/A   Clear
10:56 AM 79.0 °F 30.9 °F 17% 30.11 in 10.0 mi Calm Calm - N/A   Clear
11:56 AM 84.0 °F 32.0 °F 15% 30.09 in 10.0 mi Variable 5.8 mph - N/A   Scattered Clouds
12:56 PM 87.1 °F 30.9 °F 13% 30.07 in 10.0 mi Variable 5.8 mph - N/A   Partly Cloudy
1:56 PM 87.1 °F 28.9 °F 12% 30.05 in 10.0 mi Variable 4.6 mph - N/A   Clear
2:56 PM 88.0 °F 30.9 °F 13% 30.01 in 10.0 mi Variable 5.8 mph - N/A   Clear
3:56 PM 88.0 °F 30.9 °F 13% 29.99 in 10.0 mi Calm Calm - N/A   Clear
4:56 PM 88.0 °F 30.0 °F 12% 29.97 in 10.0 mi Variable 3.5 mph - N/A   Clear
5:56 PM 84.0 °F 28.9 °F 14% 29.96 in 10.0 mi Calm Calm - N/A   Clear
6:56 PM 80.1 °F 28.9 °F 15% 29.95 in 10.0 mi Variable 3.5 mph - N/A   Clear
7:56 PM 75.9 °F 28.9 °F 18% 29.94 in 10.0 mi Calm Calm - N/A   Clear
8:56 PM 69.8 °F 33.8 °F 27% 29.99 in 10.0 mi Calm Calm - N/A   Clear
9:56 PM 64.0 °F 36.0 °F 35% 29.91 in 10.0 mi Calm Calm - N/A   Clear
10:56 PM 59.0 °F 37.9 °F 46% 29.90 in 10.0 mi Calm Calm - N/A   Clear
11:56 PM 55.0 °F 37.9 °F 53% 29.90 in 10.0 mi Calm Calm - N/A   Clear